Location: Unspecified
(0.0000°N, 0.0000°E)
Time: 23:25:17
(UTC+00:00)

A-11 Canister half - Pass Details

Date: 09 February 2023
Orbit: 1526 x 1682 km, 47.3° (Epoch: 29 March)

Event Time Altitude Azimuth Distance (km) Brightness Sun altitude
Rises 00:21:06 0° 210° (SSW) 4,835 - -75.1°
Reaches altitude 10° 00:24:23 10° 205° (SSW) 3,825 - -75.0°
Maximum altitude 00:33:46 54° 130° (SE) 1,858 - -74.4°
Drops below altitude 10° 00:42:49 10° 55° (NE) 3,709 - -73.6°
Sets 00:45:55 0° 51° (NE) 4,679 - -73.2°
